When you browse on this site, cookies collect data to enhance your experience and personalize the content and advertising you see.
Visit our Privacy Policy to learn more. By continuing to use the site, you agree to this use of cookies and data.
  • In Austria
  • List of Countries
  • For 7 days
  • Water Temperature
  • Satellite Maps
  • Weather Map
  • News
  • Weather Widgets
  • user-avatar
    Login

    Hourly Weather Wiejca

    Today, 20 February, Wednesday

    Time Temperature Precipitation Wind Pressure Humidity
    00:00 +3°C° 0 mm 5 mps 751 mmHg 87%
    01:00 +3°C° 0 mm 4 mps 751 mmHg 87%
    02:00 +3°C° 0 mm 4 mps 751 mmHg 87%
    03:00 +2°C° 0 mm 5 mps 752 mmHg 88%
    04:00 +2°C° 0 mm 5 mps 752 mmHg 89%
    05:00 +2°C° 0 mm 5 mps 752 mmHg 88%
    06:00 +2°C° 0 mm 5 mps 752 mmHg 88%
    07:00 +2°C° 0 mm 6 mps 752 mmHg 87%
    08:00 +2°C° 0 mm 6 mps 753 mmHg 81%
    09:00 +3°C° 0 mm 7 mps 753 mmHg 76%
    10:00 +3°C° 0 mm 7 mps 754 mmHg 70%
    11:00 +4°C° 0.1 mm 7 mps 754 mmHg 69%
    12:00 +4°C° 0.1 mm 7 mps 754 mmHg 67%
    13:00 +4°C° 0.1 mm 8 mps 754 mmHg 66%
    14:00 +4°C° 0 mm 7 mps 754 mmHg 66%
    15:00 +4°C° 0 mm 7 mps 755 mmHg 66%
    16:00 +4°C° 0 mm 6 mps 755 mmHg 66%
    17:00 +4°C° 0 mm 6 mps 755 mmHg 68%
    18:00 +3°C° 0 mm 6 mps 756 mmHg 70%
    19:00 +3°C° 0 mm 6 mps 756 mmHg 73%
    20:00 +3°C° 0 mm 5 mps 756 mmHg 74%
    21:00 +3°C° 0 mm 5 mps 757 mmHg 76%
    22:00 +3°C° 0 mm 5 mps 757 mmHg 77%
    23:00 +3°C° 0 mm 4 mps 757 mmHg 80%

    Tomorrow, 21 February, Thursday

    Time Temperature Precipitation Wind Pressure Humidity
    00:00 +3°C° 0 mm 4 mps 758 mmHg 83%
    01:00 +2°C° 0 mm 3 mps 758 mmHg 86%
    02:00 +2°C° 0 mm 3 mps 758 mmHg 88%
    03:00 +2°C° 0 mm 3 mps 758 mmHg 90%
    04:00 +2°C° 0 mm 3 mps 758 mmHg 93%
    05:00 +3°C° 0.1 mm 2 mps 758 mmHg 93%
    06:00 +3°C° 0.1 mm 2 mps 758 mmHg 94%
    07:00 +3°C° 0.1 mm 2 mps 758 mmHg 95%
    08:00 +3°C° 0.3 mm 3 mps 758 mmHg 93%
    09:00 +3°C° 0.3 mm 3 mps 758 mmHg 91%
    10:00 +4°C° 0.3 mm 4 mps 757 mmHg 89%
    11:00 +4°C° 0.6 mm 4 mps 757 mmHg 87%
    12:00 +3°C° 0.6 mm 5 mps 757 mmHg 86%
    13:00 +3°C° 0.6 mm 5 mps 756 mmHg 85%
    14:00 +3°C° 0.9 mm 5 mps 756 mmHg 86%
    15:00 +3°C° 0.9 mm 5 mps 755 mmHg 87%
    16:00 +3°C° 0.9 mm 5 mps 755 mmHg 89%
    17:00 +3°C° 0.6 mm 5 mps 755 mmHg 89%
    18:00 +3°C° 0.6 mm 5 mps 755 mmHg 89%
    19:00 +3°C° 0.6 mm 5 mps 754 mmHg 90%
    20:00 +3°C° 0.8 mm 5 mps 754 mmHg 91%
    21:00 +4°C° 0.8 mm 4 mps 754 mmHg 92%
    22:00 +4°C° 0.8 mm 4 mps 754 mmHg 94%
    23:00 +4°C° 0.3 mm 4 mps 754 mmHg 94%

    Day after tomorrow, 22 February, Friday

    Time Temperature Precipitation Wind Pressure Humidity
    00:00 +4°C° 0.3 mm 4 mps 754 mmHg 94%
    01:00 +4°C° 0.3 mm 4 mps 755 mmHg 95%
    02:00 +2°C° 0.4 mm 5 mps 755 mmHg 91%
    03:00 -1°C° 0.4 mm 6 mps 756 mmHg 87%
    04:00 -3°C° 0.4 mm 7 mps 756 mmHg 84%
    05:00 -3°C° 0 mm 7 mps 758 mmHg 78%
    06:00 -4°C° 0 mm 6 mps 759 mmHg 73%
    07:00 -5°C° 0 mm 6 mps 761 mmHg 68%
    08:00 -4°C° 0 mm 6 mps 762 mmHg 65%
    09:00 -4°C° 0 mm 6 mps 763 mmHg 62%
    10:00 -4°C° 0 mm 6 mps 765 mmHg 58%
    11:00 -4°C° 0 mm 6 mps 765 mmHg 56%
    12:00 -4°C° 0 mm 6 mps 766 mmHg 54%
    13:00 -4°C° 0 mm 6 mps 767 mmHg 52%
    14:00 -4°C° 0 mm 5 mps 767 mmHg 52%
    15:00 -4°C° 0 mm 5 mps 768 mmHg 52%
    16:00 -5°C° 0 mm 5 mps 768 mmHg 52%
    17:00 -5°C° 0 mm 5 mps 769 mmHg 53%
    18:00 -5°C° 0 mm 4 mps 769 mmHg 53%
    19:00 -5°C° 0 mm 4 mps 770 mmHg 53%
    20:00 -5°C° 0 mm 4 mps 770 mmHg 50%
    21:00 -5°C° 0 mm 4 mps 771 mmHg 47%
    22:00 -5°C° 0 mm 4 mps 771 mmHg 44%
    23:00 -5°C° 0 mm 4 mps 772 mmHg 42%

    23 February, Saturday

    Time Temperature Precipitation Wind Pressure Humidity
    00:00 -7°C° 0 mm 4 mps 772 mmHg 40%
    01:00 -7°C° 0 mm 4 mps 772 mmHg 39%
    02:00 -7°C° 0 mm 4 mps 772 mmHg 41%
    03:00 -6°C° 0 mm 3 mps 772 mmHg 42%
    04:00 -6°C° 0 mm 3 mps 772 mmHg 44%
    05:00 -6°C° 0 mm 3 mps 772 mmHg 46%
    06:00 -7°C° 0 mm 3 mps 773 mmHg 48%
    07:00 -7°C° 0 mm 3 mps 773 mmHg 49%
    08:00 -6°C° 0 mm 3 mps 773 mmHg 46%
    09:00 -5°C° 0 mm 3 mps 773 mmHg 42%
    10:00 -5°C° 0 mm 3 mps 774 mmHg 39%
    11:00 -3°C° 0 mm 2 mps 773 mmHg 36%
    12:00 -3°C° 0 mm 2 mps 773 mmHg 33%
    13:00 -2°C° 0 mm 2 mps 773 mmHg 30%
    14:00 -2°C° 0 mm 2 mps 773 mmHg 31%
    15:00 -2°C° 0 mm 2 mps 772 mmHg 32%
    16:00 -2°C° 0 mm 2 mps 772 mmHg 33%
    17:00 -2°C° 0 mm 2 mps 772 mmHg 36%
    18:00 -3°C° 0 mm 2 mps 772 mmHg 39%
    19:00 -1°C° 0 mm 1 mps 772 mmHg 42%
    20:00 -1°C° 0 mm 1 mps 772 mmHg 42%
    21:00 -1°C° 0 mm 1 mps 772 mmHg 42%
    22:00 0°C° 0 mm 1 mps 772 mmHg 42%
    23:00 0°C° 0 mm 1 mps 772 mmHg 42%

    24 February, Sunday

    Time Temperature Precipitation Wind Pressure Humidity
    00:00 0°C° 0 mm 1 mps 771 mmHg 42%
    01:00 0°C° 0 mm 1 mps 771 mmHg 42%
    02:00 -2°C° 0 mm 2 mps 771 mmHg 42%
    03:00 -2°C° 0 mm 2 mps 771 mmHg 42%
    04:00 -2°C° 0 mm 2 mps 770 mmHg 42%
    05:00 -2°C° 0 mm 2 mps 770 mmHg 43%
    06:00 -2°C° 0 mm 2 mps 770 mmHg 44%
    07:00 -2°C° 0 mm 2 mps 770 mmHg 44%
    08:00 -1°C° 0 mm 3 mps 770 mmHg 43%
    09:00 -1°C° 0 mm 3 mps 770 mmHg 41%
    10:00 0°C° 0 mm 3 mps 770 mmHg 39%
    11:00 +1°C° 0 mm 3 mps 769 mmHg 41%
    12:00 +2°C° 0 mm 3 mps 769 mmHg 42%
    13:00 +3°C° 0 mm 3 mps 769 mmHg 44%
    14:00 +2°C° 0 mm 3 mps 769 mmHg 50%
    15:00 +3°C° 0 mm 2 mps 768 mmHg 55%
    16:00 +3°C° 0 mm 2 mps 768 mmHg 60%
    17:00 +2°C° 0 mm 2 mps 768 mmHg 64%
    18:00 +2°C° 0 mm 2 mps 769 mmHg 67%
    19:00 +1°C° 0 mm 2 mps 769 mmHg 70%
    20:00 +1°C° 0 mm 2 mps 769 mmHg 72%
    21:00 +1°C° 0 mm 2 mps 769 mmHg 73%
    22:00 +2°C° 0 mm 1 mps 769 mmHg 74%
    23:00 +1°C° 0 mm 2 mps 769 mmHg 75%

    25 February, Monday

    Time Temperature Precipitation Wind Pressure Humidity
    00:00 -1°C° 0 mm 2 mps 768 mmHg 76%
    01:00 -1°C° 0 mm 2 mps 768 mmHg 77%
    02:00 -1°C° 0 mm 2 mps 768 mmHg 77%
    03:00 -1°C° 0 mm 2 mps 768 mmHg 77%
    04:00 -1°C° 0 mm 3 mps 768 mmHg 76%
    05:00 -1°C° 0 mm 3 mps 767 mmHg 77%
    06:00 -1°C° 0 mm 3 mps 767 mmHg 78%
    07:00 -1°C° 0 mm 3 mps 767 mmHg 79%
    08:00 0°C° 0 mm 3 mps 767 mmHg 76%
    09:00 +1°C° 0 mm 3 mps 767 mmHg 73%
    10:00 +1°C° 0 mm 4 mps 767 mmHg 71%
    11:00 +4°C° 0 mm 4 mps 767 mmHg 70%
    12:00 +5°C° 0 mm 5 mps 767 mmHg 70%
    13:00 +6°C° 0 mm 5 mps 767 mmHg 69%
    14:00 +6°C° 0 mm 5 mps 766 mmHg 67%
    15:00 +6°C° 0 mm 5 mps 766 mmHg 65%
    16:00 +5°C° 0 mm 4 mps 766 mmHg 63%
    17:00 +4°C° 0 mm 4 mps 766 mmHg 68%
    18:00 +3°C° 0 mm 4 mps 767 mmHg 73%
    19:00 +1°C° 0 mm 4 mps 767 mmHg 78%
    20:00 0°C° 0 mm 4 mps 767 mmHg 81%
    21:00 0°C° 0 mm 4 mps 767 mmHg 83%
    22:00 -1°C° 0 mm 4 mps 767 mmHg 86%
    23:00 -1°C° 0 mm 4 mps 767 mmHg 86%
    Show more